Weather History for KOPF - October, 2012

Change the Weather History Date:

Tuesday, October 23, 2012

  Actual Average Record
Temperature  
Mean Temperature 78 °F -  
Max Temperature 84 °F 84 °F 91 °F (1990)
Min Temperature 73 °F 69 °F 54 °F (1961)
Cooling Degree Days 14    
Growing Degree Days 28 (Base 50)    
Moisture  
Dew Point 68 °F    
Average Humidity 69    
Maximum Humidity 83    
Minimum Humidity 55    
Precipitation  
Precipitation 0.05 in - - ()
Sea Level Pressure  
Sea Level Pressure 29.96 in    
Wind  
Wind Speed 12 mph (ENE)    
Max Wind Speed 20 mph    
Max Gust Speed 28 mph    
Visibility 10 miles    
Events      
Averages and records for this station are not official NWS values.
T = Trace of Precipitation, MM = Missing Value Source: NWS Daily Summary

Daily Weather History Graph

Daily Weather History Graph

Search for Another Location

Airport or City:

Trip Planner

Search our weather history database for the weather conditions in past years. The results will help you decide how hot, cold, wet, or windy it might be!

Date:

Astronomy

Oct. 23, 2012 Rise Set
Actual Time 7:24 AM EDT 6:45 PM EDT
Civil Twilight 7:01 AM EDT 7:09 PM EDT
Nautical Twilight 6:34 AM EDT 7:36 PM EDT
Astronomical Twilight 6:07 AM EDT 8:03 PM EDT
Moon 2:58 PM EDT (10/23) 1:49 AM EDT (10/23)
Length of Visible Light 12h 08m
Length of Day
11h 21m
Waxing Gibbous, 66% of the Moon is Illuminated
Oct 23
Waxing Gibbous
Oct 29
Full
Nov 6
Last Quarter
Nov 13
New
Nov 20
First Quarter

Hourly Weather History & Observations

Time (EDT) Temp. Heat Index Dew Point Humidity Pressure Visibility Wind Dir Wind Speed Gust Speed Precip Events Conditions
12:53 AM 77.0 °F - 62.6 °F 61% 29.99 in 10.0 mi ENE 9.2 mph - N/A   Clear
1:53 AM 75.2 °F - 64.4 °F 69% 29.97 in 10.0 mi ENE 9.2 mph - N/A   Clear
2:53 AM 75.2 °F - 64.4 °F 69% 29.97 in 10.0 mi ENE 9.2 mph - N/A   Scattered Clouds
3:53 AM 77.0 °F - 64.0 °F 64% 29.96 in 10.0 mi ENE 15.0 mph - N/A   Scattered Clouds
4:53 AM 75.9 °F - 64.0 °F 67% 29.95 in 10.0 mi ENE 9.2 mph - N/A   Clear
6:53 AM 75.0 °F - 62.1 °F 64% 29.96 in 10.0 mi ENE 8.1 mph - N/A   Clear
7:53 AM 73.9 °F - 64.0 °F 71% 29.96 in 10.0 mi NE 4.6 mph - N/A   Clear
8:53 AM 75.9 °F - 66.9 °F 74% 29.97 in 10.0 mi NNE 3.5 mph - N/A   Partly Cloudy
9:53 AM 81.0 °F 83.0 °F 66.0 °F 60% 29.99 in 10.0 mi East 12.7 mph - N/A   Partly Cloudy
10:53 AM 82.0 °F 84.5 °F 66.9 °F 60% 29.99 in 10.0 mi East 15.0 mph 23.0 mph N/A   Scattered Clouds
11:53 AM 84.0 °F 86.5 °F 66.9 °F 56% 29.98 in 10.0 mi ENE 17.3 mph 24.2 mph N/A   Scattered Clouds
12:53 PM 84.2 °F 86.6 °F 66.2 °F 55% 29.96 in 10.0 mi ENE 18.4 mph 26.5 mph N/A   Scattered Clouds
1:53 PM 84.9 °F 87.6 °F 66.9 °F 55% 29.94 in 10.0 mi East 13.8 mph - N/A   Scattered Clouds
2:53 PM 82.0 °F 85.5 °F 69.1 °F 65% 29.92 in 10.0 mi ENE 16.1 mph - N/A   Mostly Cloudy
3:53 PM 82.0 °F 86.3 °F 71.1 °F 69% 29.91 in 10.0 mi ENE 16.1 mph - 0.05 in   Mostly Cloudy
4:53 PM 82.0 °F 85.9 °F 70.0 °F 67% 29.92 in 10.0 mi NE 19.6 mph 24.2 mph N/A   Scattered Clouds
5:53 PM 80.1 °F 82.9 °F 69.1 °F 69% 29.92 in 10.0 mi ENE 15.0 mph 27.6 mph N/A   Overcast
6:53 PM 79.0 °F - 69.1 °F 72% 29.94 in 10.0 mi ENE 13.8 mph - N/A   Scattered Clouds
7:53 PM 79.0 °F - 70.0 °F 74% 29.95 in 10.0 mi ENE 13.8 mph 20.7 mph N/A   Mostly Cloudy
8:14 PM 78.8 °F - 69.8 °F 74% 29.95 in 10.0 mi ENE 13.8 mph 23.0 mph N/A   Mostly Cloudy
8:53 PM 79.0 °F - 69.1 °F 72% 29.97 in 10.0 mi ENE 15.0 mph - N/A   Partly Cloudy
9:53 PM 79.0 °F - 70.0 °F 74% 29.97 in 10.0 mi ENE 16.1 mph - N/A   Scattered Clouds
10:53 PM 77.0 °F - 71.1 °F 82% 29.97 in 10.0 mi ENE 12.7 mph - 0.00 in   Mostly Cloudy
11:32 PM 77.0 °F - 71.6 °F 83% 29.96 in 10.0 mi NE 11.5 mph - N/A   Mostly Cloudy
11:49 PM 77.0 °F - 71.6 °F 83% 29.96 in 10.0 mi NE 13.8 mph - N/A   Mostly Cloudy
11:53 PM 77.0 °F - 71.1 °F 82% 29.96 in 10.0 mi NE 11.5 mph - N/A   Mostly Cloudy